Location: ??????????
(54.8537°N, 38.8755°E)
Time: 01:53:47
(UTC+00:00)

Tiros 1 - Pass Details

Date: 17 September 2024
Orbit: 623 x 654 km, 48.4° (Epoch: 15 October)

Event Time Altitude Azimuth Distance (km) Brightness Sun altitude
Rises 13:59:43 0° 242° (WSW) 2,896 12.3 12.8°
Reaches altitude 10° 14:02:11 10° 233° (SW) 1,992 11.2 12.5°
Maximum altitude 14:06:18 34° 169° (S) 1,036 8.4 11.9°
Drops below altitude 10° 14:10:27 10° 105° (ESE) 2,006 9.2 11.3°
Sets 14:12:56 0° 96° (E) 2,920 9.9 11.0°
